{"data":{"norad_id":53276,"epoch":"2026-09-19T21:56:28.048992Z","epoch_age_seconds":126011,"freshness":"FRESH","line1":"1 53276U 22086AL  26262.91421353 -.00003783  00000+0 -10089-3 0  9990","line2":"2 53276  53.1601  16.1140 0001132  75.2828 284.8299 15.34398109230733","mean_motion":15.34398109,"eccentricity":0.0001132,"inclination_deg":53.1601,"raan_deg":16.114,"arg_perigee_deg":75.2828,"mean_anomaly_deg":284.8299,"bstar":-0.00010089,"rev_number":23073,"period_min":93.847873739787,"perigee_km":461.93447691196,"apogee_km":463.48324441481,"semimajor_km":6840.8458606634,"source":"CELESTRAK","updated_at":"2026-09-20T09:00:40.218933Z"}}